Date String (YYYY-MM-DD hh:mm:ss) UTC,Instrument flags,Ambient pressure (hPa),Sample flow (lpm),Bypass flow (lpm),Sample temperature (°C),Ambient temperature (°C),ASC tube jacket temperature (°C),LED temperature (°C),Box temperature (°C),Sample RH (%),Span deviation,Mass concentration (μg/m³),Mass concentration (μg/m³),Mass concentration (μg/m³)
DateTimeUTC,F1_M11,P_M11,Q1_M11,Q2_M11,T1_M11,T2_M11,T3_M11,T4_M11,T5_M11,U1_M11,ZSPAN_M11,X0_M11,X2_M11,X1_M11
2022-11-05 21:00:00,,0810.5,5.01,0.00,24.3,23.2,00.0,33.1,26.3,13.6,0000.0,0002.99,0000.36,0000.23
2022-11-05 21:01:00,,0810.5,4.99,0.00,24.4,23.2,00.0,33.1,26.3,13.4,0000.0,0002.98,0000.35,0000.23
2022-11-05 21:02:00,,0810.6,5.00,0.00,24.4,23.2,00.0,33.1,26.3,13.3,0000.0,0003.01,0000.34,0000.23
2022-11-05 21:03:00,,0810.5,5.00,0.00,24.4,23.2,00.0,33.1,26.3,13.5,0000.0,0003.21,0000.38,0000.24
2022-11-05 21:04:00,,0810.4,5.01,0.00,24.4,23.3,00.0,33.1,26.3,13.3,0000.0,0003.12,0000.39,0000.24
2022-11-05 21:05:00,,0810.3,5.00,0.00,24.4,23.3,00.0,33.2,26.3,13.3,0000.0,0002.95,0000.41,0000.24
2022-11-05 21:06:00,,0810.3,4.99,0.00,24.4,23.2,00.0,33.2,26.3,13.2,0000.0,0001.64,0000.41,0000.24
2022-11-05 21:07:00,,0810.3,5.00,0.00,24.4,23.2,00.0,33.2,26.3,13.3,0000.0,0001.15,0000.42,0000.24
2022-11-05 21:08:00,,0810.3,5.00,0.00,24.4,23.2,00.0,33.2,26.3,13.3,0000.0,0001.20,0000.46,0000.25
2022-11-05 21:09:00,,0810.2,5.00,0.00,24.4,23.2,00.0,33.2,26.3,13.4,0000.0,0001.22,0000.47,0000.25
2022-11-05 21:10:00,,0810.3,5.02,0.00,24.4,23.2,00.0,33.2,26.4,13.5,0000.0,0001.14,0000.46,0000.25
2022-11-05 21:11:00,,0810.3,4.99,0.00,24.4,23.2,00.0,33.2,26.3,13.3,0000.0,0001.31,0000.49,0000.25
2022-11-05 21:12:00,,0810.2,5.00,0.00,24.4,23.2,00.0,33.2,26.4,13.1,0000.0,0001.49,0000.51,0000.25
2022-11-05 21:13:00,,0810.2,5.01,0.00,24.4,23.2,00.0,33.2,26.3,13.2,0000.0,0001.55,0000.52,0000.25
2022-11-05 21:14:00,,0810.2,5.00,0.00,24.4,23.3,00.0,33.2,26.4,13.1,0000.0,0001.49,0000.51,0000.24
2022-11-05 21:15:00,,0810.3,5.00,0.00,24.5,23.3,00.0,33.2,26.4,13.3,0000.0,0001.60,0000.50,0000.25
2022-11-05 21:16:00,,0810.4,5.00,0.00,24.5,23.3,00.0,33.2,26.4,13.4,0000.0,0001.55,0000.50,0000.25
2022-11-05 21:17:00,,0810.3,5.01,0.00,24.5,23.3,00.0,33.2,26.4,13.1,0000.0,0001.57,0000.50,0000.25
2022-11-05 21:18:00,,0810.4,5.00,0.00,24.5,23.3,00.0,33.2,26.4,13.2,0000.0,0001.59,0000.49,0000.25
2022-11-05 21:19:00,,0810.3,5.00,0.00,24.5,23.3,00.0,33.2,26.4,13.3,0000.0,0001.58,0000.49,0000.25
2022-11-05 21:20:00,,0810.3,5.00,0.00,24.5,23.3,00.0,33.3,26.4,13.2,0000.0,0001.55,0000.47,0000.25
2022-11-05 21:21:00,,0810.2,4.99,0.00,24.5,23.3,00.0,33.3,26.4,13.2,0000.0,0001.65,0000.48,0000.25
2022-11-05 21:22:00,,0810.2,5.01,0.00,24.5,23.3,00.0,33.3,26.5,13.4,0000.0,0001.58,0000.48,0000.25
2022-11-05 21:23:00,,0810.2,5.00,0.00,24.5,23.3,00.0,33.3,26.4,13.3,0000.0,0001.45,0000.47,0000.24
2022-11-05 21:24:00,,0810.2,4.98,0.00,24.5,23.3,00.0,33.3,26.5,13.3,0000.0,0001.46,0000.47,0000.24
2022-11-05 21:25:00,,0810.2,5.01,0.00,24.5,23.4,00.0,33.3,26.5,13.3,0000.0,0001.39,0000.45,0000.24
2022-11-05 21:26:00,,0810.1,5.00,0.00,24.6,23.4,00.0,33.3,26.5,13.2,0000.0,0001.13,0000.46,0000.25
2022-11-05 21:27:00,,0810.0,5.00,0.00,24.6,23.5,00.0,33.3,26.5,13.3,0000.0,0001.08,0000.46,0000.25
2022-11-05 21:28:00,,0810.1,4.99,0.00,24.6,23.5,00.0,33.3,26.6,13.2,0000.0,0001.09,0000.47,0000.25
2022-11-05 21:29:00,,0810.1,4.99,0.00,24.6,23.5,00.0,33.3,26.5,13.2,0000.0,0000.99,0000.46,0000.25
2022-11-05 21:30:00,,0810.2,5.01,0.00,24.6,23.5,00.0,33.3,26.6,13.1,0000.0,0000.94,0000.44,0000.24
2022-11-05 21:31:00,,0809.8,5.00,0.00,24.6,23.6,00.0,33.4,26.6,13.1,0000.0,0000.98,0000.46,0000.25
2022-11-05 21:32:00,,0809.7,5.00,0.00,24.7,23.6,00.0,33.4,26.6,13.1,0000.0,0000.99,0000.48,0000.25
2022-11-05 21:33:00,,0809.9,5.00,0.00,24.7,23.6,00.0,33.4,26.6,13.2,0000.0,0002.34,0000.47,0000.25
2022-11-05 21:34:00,,0810.1,4.99,0.00,24.7,23.6,00.0,33.4,26.6,13.2,0000.0,0002.71,0000.52,0000.26
2022-11-05 21:35:00,,0810.0,5.00,0.00,24.7,23.6,00.0,33.4,26.6,13.7,0000.0,0002.59,0000.50,0000.26
2022-11-05 21:36:00,,0809.9,5.00,0.00,24.7,23.6,00.0,33.4,26.7,13.7,0000.0,0002.74,0000.51,0000.27
2022-11-05 21:37:00,,0810.1,5.01,0.00,24.7,23.7,00.0,33.4,26.7,13.5,0000.0,0002.81,0000.49,0000.26
2022-11-05 21:38:00,,0810.3,5.00,0.00,24.7,23.7,00.0,33.4,26.7,13.4,0000.0,0002.88,0000.48,0000.26
2022-11-05 21:39:00,,0810.3,5.00,0.00,24.8,23.7,00.0,33.5,26.7,13.4,0000.0,0002.91,0000.48,0000.26
2022-11-05 21:40:00,,0810.2,4.99,0.00,24.8,23.7,00.0,33.5,26.7,13.3,0000.0,0002.91,0000.48,0000.26
2022-11-05 21:41:00,,0810.1,5.00,0.00,24.8,23.7,00.0,33.5,26.7,13.3,0000.0,0002.92,0000.48,0000.26
2022-11-05 21:42:00,,0810.2,5.00,0.00,24.8,23.7,00.0,33.5,26.7,13.4,0000.0,0002.91,0000.47,0000.26
2022-11-05 21:43:00,,0810.3,5.00,0.00,24.8,23.8,00.0,33.5,26.8,13.6,0000.0,0002.83,0000.44,0000.26
2022-11-05 21:44:00,,0810.4,5.00,0.00,24.8,23.8,00.0,33.5,26.8,13.7,0000.0,0001.65,0000.42,0000.27
2022-11-05 21:45:00,,0810.3,5.00,0.00,24.9,23.8,00.0,33.5,26.8,13.6,0000.0,0000.96,0000.37,0000.26
2022-11-05 21:46:00,,0810.2,5.00,0.00,24.9,23.9,00.0,33.6,26.8,13.7,0000.0,0001.02,0000.38,0000.26
2022-11-05 21:47:00,,0810.2,5.00,0.00,24.9,23.9,00.0,33.6,26.9,13.6,0000.0,0001.32,0000.38,0000.26
2022-11-05 21:48:00,,0810.0,5.00,0.00,24.9,23.9,00.0,33.6,26.9,13.7,0000.0,0001.44,0000.39,0000.26
2022-11-05 21:49:00,,0810.1,5.01,0.00,24.9,23.9,00.0,33.6,26.9,13.7,0000.0,0001.51,0000.40,0000.27
2022-11-05 21:50:00,,0810.2,5.00,0.00,25.0,23.9,00.0,33.6,26.9,13.9,0000.0,0001.48,0000.39,0000.27
2022-11-05 21:51:00,,0810.2,5.01,0.00,25.0,24.0,00.0,33.6,26.9,13.8,0000.0,0001.62,0000.41,0000.27
2022-11-05 21:52:00,,0810.2,5.00,0.00,25.0,24.0,00.0,33.7,26.9,13.8,0000.0,0001.83,0000.45,0000.27
2022-11-05 21:53:00,,0810.1,5.00,0.00,25.0,24.0,00.0,33.7,26.9,13.8,0000.0,0001.84,0000.45,0000.27
2022-11-05 21:54:00,,0810.1,5.00,0.00,25.0,23.9,00.0,33.7,26.9,13.4,0000.0,0001.86,0000.46,0000.28
2022-11-05 21:55:00,,0810.1,5.00,0.00,25.0,23.9,00.0,33.7,26.9,13.4,0000.0,0002.13,0000.45,0000.28
2022-11-05 21:56:00,,0810.1,5.00,0.00,25.0,23.9,00.0,33.7,26.9,13.4,0000.0,0002.17,0000.45,0000.28
2022-11-05 21:57:00,,0809.9,5.00,0.00,25.0,24.0,00.0,33.7,26.9,13.5,0000.0,0002.15,0000.46,0000.29
2022-11-05 21:58:00,,0810.2,4.99,0.00,25.0,23.9,00.0,33.7,26.9,13.6,0000.0,0001.75,0000.45,0000.29
2022-11-05 21:59:00,,0810.0,5.00,0.00,25.0,23.8,00.0,33.7,26.9,13.6,0000.0,0001.52,0000.45,0000.29
